Meacham, OR

10:01 PM PDT on April 28, 2017 (GMT -0700)
Meacham

Weather History for KMEH - February, 2014

Change the Weather History Date:

Monday, February 24, 2014

  Actual Average Record
Temperature  
Mean Temperature 36 °F -  
Max Temperature 43 °F 37 °F 54 °F (2005)
Min Temperature 28 °F 17 °F -5 °F (2003)
Degree Days  
Heating Degree Days 30    
Moisture  
Dew Point 32 °F    
Average Humidity 94    
Maximum Humidity 100    
Minimum Humidity 82    
Precipitation  
Precipitation 0.15 in - - ()
Sea Level Pressure  
Sea Level Pressure 30.06 in    
Wind  
Wind Speed 0 mph (WNW)    
Max Wind Speed 5 mph    
Max Gust Speed -    
Visibility 5 miles    
Events Rain    
Averages and records for this station are not official NWS values.
T = Trace of Precipitation, MM = Missing Value Source: NWS Daily Summary

Daily Weather History Graph

Daily Weather History Graph

Search for Another Location

Airport or City:

Trip Planner

Search our weather history database for the weather conditions in past years. The results will help you decide how hot, cold, wet, or windy it might be!

Date:

Astronomy

Feb. 24, 2014 Rise Set
Actual Time 6:40 AM PST 5:33 PM PST
Civil Twilight 6:10 AM PST 6:03 PM PST
Nautical Twilight 5:36 AM PST 6:38 PM PST
Astronomical Twilight 5:02 AM PST 7:12 PM PST
Moon 2:53 AM PST (2/24) 12:30 PM PST (2/24)
Length of Visible Light 11h 53m
Length of Day
10h 53m
Waning Crescent, 27% of the Moon is Illuminated
Feb 24
Waning Crescent
Mar 1
New
Mar 8
First Quarter
Mar 16
Full
Mar 23
Last Quarter

Hourly Weather History & Observations

Time (PST) Temp. Windchill Dew Point Humidity Pressure Visibility Wind Dir Wind Speed Gust Speed Precip Events Conditions
12:56 AM 34.0 °F - 33.1 °F 96% 30.01 in 7.0 mi Calm Calm - N/A   Overcast
1:56 AM 34.0 °F - 33.1 °F 96% 30.04 in 10.0 mi Calm Calm - N/A   Overcast
2:34 AM 34.0 °F - 33.1 °F 96% 30.00 in 7.0 mi Calm Calm - N/A   Overcast
2:56 AM 34.0 °F - 33.1 °F 96% 30.04 in 3.0 mi Calm Calm - N/A   Overcast
3:05 AM 34.0 °F - 33.1 °F 96% 30.01 in 2.0 mi Calm Calm - N/A   Overcast
3:29 AM 34.0 °F - 33.1 °F 96% 30.01 in 2.0 mi Calm Calm - 0.00 in   Overcast
3:56 AM 34.0 °F - 33.1 °F 96% 30.06 in 2.0 mi Calm Calm - 0.00 in   Overcast
4:27 AM 34.0 °F - 33.1 °F 96% 30.03 in 5.0 mi Calm Calm - 0.01 in   Overcast
4:37 AM 34.0 °F - 33.1 °F 96% 30.03 in 2.5 mi Calm Calm - 0.01 in   Overcast
4:56 AM 34.0 °F - 33.1 °F 96% 30.08 in 2.0 mi Calm Calm - 0.01 in   Overcast
5:27 AM 34.0 °F - 33.1 °F 96% 30.03 in 3.0 mi Calm Calm - N/A   Overcast
5:56 AM 34.0 °F - 33.1 °F 96% 30.09 in 4.0 mi Calm Calm - N/A   Overcast
6:54 AM 33.8 °F - 33.8 °F 100% 30.03 in 2.5 mi Calm Calm - N/A   Overcast
6:56 AM 34.0 °F - 33.1 °F 96% 30.09 in 2.0 mi Calm Calm - N/A   Overcast
7:02 AM 34.0 °F - 33.1 °F 96% 30.04 in 1.2 mi Calm Calm - N/A   Overcast
7:12 AM 34.0 °F - 33.1 °F 96% 30.04 in 0.8 mi Calm Calm - N/A   Mist
7:29 AM 35.1 °F - 34.0 °F 96% 30.04 in 1.2 mi Calm Calm - N/A   Overcast
7:45 AM 35.1 °F - 34.0 °F 96% 30.04 in 2.0 mi Calm Calm - N/A   Overcast
7:56 AM 35.1 °F - 34.0 °F 96% 30.11 in 1.2 mi Calm Calm - N/A   Overcast
8:17 AM 35.1 °F - 34.0 °F 96% 30.05 in 1.8 mi Calm Calm - N/A   Overcast
8:23 AM 36.0 °F - 35.1 °F 97% 30.05 in 3.0 mi Calm Calm - N/A   Overcast
8:56 AM 37.0 °F - 35.1 °F 93% 30.09 in 10.0 mi Calm Calm - N/A   Overcast
9:15 AM 37.9 °F - 36.0 °F 93% 30.04 in 10.0 mi Calm Calm - N/A   Overcast
9:24 AM 39.0 °F - 37.0 °F 93% 30.04 in 10.0 mi Calm Calm - N/A   Overcast
9:53 AM 41.0 °F - 37.4 °F 87% 30.05 in 10.0 mi Calm Calm - N/A   Overcast
9:56 AM 41.0 °F - 37.9 °F 89% 30.09 in 10.0 mi Calm Calm - N/A   Overcast
10:31 AM 42.1 °F - 37.9 °F 85% 30.05 in 10.0 mi Calm Calm - N/A   Overcast
10:56 AM 43.0 °F - 37.9 °F 82% 30.09 in 10.0 mi Calm Calm - N/A   Overcast
11:56 AM 42.1 °F 39.2 °F 37.0 °F 82% 30.09 in 10.0 mi Variable 4.6 mph - N/A   Overcast
12:56 PM 39.0 °F - 36.0 °F 89% 30.08 in 10.0 mi Calm Calm - 0.00 in Rain Light Rain
1:37 PM 37.9 °F 35.5 °F 34.0 °F 86% 30.02 in 10.0 mi Variable 3.5 mph - 0.00 in Rain Light Rain
1:46 PM 37.0 °F - 34.0 °F 89% 30.02 in 10.0 mi Calm Calm - 0.00 in Rain Light Rain
1:56 PM 35.1 °F - 33.1 °F 92% 30.09 in 10.0 mi Calm Calm - 0.00 in Rain Light Rain
2:19 PM 32.0 °F 28.7 °F 30.9 °F 96% 30.03 in 1.8 mi Variable 3.5 mph - 0.00 in Rain Light Rain
2:34 PM 30.9 °F 27.5 °F 30.0 °F 96% 30.03 in 0.8 mi Variable 3.5 mph - 0.00 in   Overcast
2:56 PM 30.9 °F 27.5 °F 30.0 °F 96% 30.09 in 0.8 mi Variable 3.5 mph - 0.00 in   Mist
3:07 PM 32.0 °F - 30.0 °F 92% 30.03 in 1.5 mi Calm Calm - 0.00 in   Overcast
3:13 PM 30.9 °F 27.5 °F 30.0 °F 96% 30.03 in 3.0 mi Variable 3.5 mph - 0.00 in   Overcast
3:56 PM 32.0 °F - 30.0 °F 92% 30.09 in 6.0 mi Calm Calm - 0.01 in   Overcast
4:29 PM 32.0 °F - 30.0 °F 92% 30.02 in 8.0 mi Calm Calm - 0.01 in   Overcast
4:56 PM 32.0 °F - 30.0 °F 92% 30.09 in 10.0 mi Calm Calm - 0.01 in   Overcast
5:49 PM 30.0 °F - 28.0 °F 92% 30.03 in 10.0 mi Calm Calm - 0.00 in   Overcast
5:56 PM 30.0 °F 26.5 °F 28.0 °F 92% 30.11 in 10.0 mi WNW 3.5 mph - 0.00 in   Overcast
6:28 PM 28.9 °F 25.2 °F 27.0 °F 92% 30.05 in 1.8 mi Variable 3.5 mph - N/A   Overcast
6:56 PM 28.9 °F - 27.0 °F 92% 30.12 in 2.5 mi Calm Calm - N/A   Overcast
7:15 PM 28.0 °F - 27.0 °F 96% 30.05 in 3.0 mi Calm Calm - 0.00 in   Overcast
7:20 PM 28.0 °F 24.2 °F 27.0 °F 96% 30.05 in 2.5 mi Variable 3.5 mph - 0.00 in Rain Light Freezing Rain
7:26 PM 28.0 °F - 27.0 °F 96% 30.05 in 3.0 mi Calm Calm - 0.00 in   Overcast
7:56 PM 28.0 °F - 27.0 °F 96% 30.13 in 5.0 mi Calm Calm - 0.00 in Rain Light Freezing Rain
8:52 PM 28.4 °F - 26.6 °F 93% 30.06 in 7.0 mi Calm Calm - 0.03 in Rain Light Freezing Rain
8:56 PM 28.0 °F - 27.0 °F 96% 30.13 in 6.0 mi Calm Calm - 0.03 in Rain Light Freezing Rain
9:56 PM 28.9 °F 25.2 °F 27.0 °F 92% 30.14 in 7.0 mi Variable 3.5 mph - 0.03 in Rain Light Freezing Rain
10:56 PM 28.9 °F - 27.0 °F 92% 30.15 in 8.0 mi Calm Calm - 0.03 in Rain Light Freezing Rain
11:56 PM 28.9 °F - 27.0 °F 92% 30.15 in 3.0 mi Calm Calm - 0.03 in Rain Light Freezing Rain